Location: The Jewett Observatory
(46.7288°N, 117.1525°W)
Time: 18:07:30
(UTC-07:00)

Daily predictions for brighter satellites

Satellite Brightness Start Highest point End
(mag) Time Altitude Azimuth Time Altitude Azimuth Time Altitude Azimuth
Cosmos 1943 3.8 21:05:11 10° S 21:10:16 35° ESE 21:15:23 10° NE
Cosmos 1346 Rocket 4.2 21:10:45 10° SE 21:13:43 21° E 21:16:43 10° NE
USA 234 3.6 21:07:49 10° ESE 21:14:20 68° NNE 21:20:52 10° NW
Terra 3.8 21:11:57 10° E 21:14:43 16° ENE 21:17:30 10° NNE
Lacrosse 5 4.0 21:12:21 10° WNW 21:16:40 27° N 21:20:59 10° NE
Cosmos 1602 Rocket 3.8 21:12:25 10° S 21:16:54 81° W 21:21:24 10° N
PSLV R/B 3.2 21:14:12 10° SSE 21:17:17 68° ENE 21:20:24 10° N
Envisat 3.0 21:13:13 10° SSE 21:18:18 85° ENE 21:23:26 10° NNW
Cosmos 1825 Rocket 4.2 21:16:55 10° SSE 21:21:01 38° E 21:25:06 10° NNE
Cosmos 407 Rocket 4.4 21:16:53 10° SSE 21:21:20 29° E 21:25:45 10° NE
COSMOS 2455 2.8 21:16:39 10° SSW 21:22:36 69° ESE 21:28:36 10° NE
Cosmos 1812 Rocket 3.8 21:20:34 10° NNW 21:24:58 74° W 21:29:22 10° S
Tsikada Rocket 4.3 21:27:46 10° SSW 21:34:11 79° W 21:40:35 10° N
deb Chang Zheng 4 4.4 21:31:03 10° N 21:35:22 55° WNW 21:39:38 10° SSW
CZ-2C R/B 3.8 21:38:28 10° WSW 21:38:51 10° W 21:39:14 10° W
H-2A R/B 3.6 21:36:14 10° SSW 21:40:09 34° W 21:44:10 10° NNW
ARGOS 3.4 21:37:09 11° SSE 21:42:14 57° ENE 21:47:34 10° N
Cosmos 1766 4.1 21:39:32 10° N 21:43:19 38° ENE 21:46:19 15° SE
Cosmos 2084 4.2 21:44:47 10° NNW 21:48:41 43° NE 21:52:16 13° ESE
Cosmos 2369 Rocket 2.4 21:44:55 10° NNW 21:50:35 73° WSW 21:55:44 12° SSE
Lacrosse 4 Rocket 1.5 21:48:08 10° S 21:52:02 48° ESE 21:56:00 10° NE
SL-8 R/B 3.8 21:48:02 10° WNW 21:52:53 78° N 21:57:44 10° E
USA 81 4.1 21:47:38 10° N 21:52:58 88° W 21:58:16 10° S
MetOp-B 4.3 21:48:03 10° S 21:53:24 72° WSW 21:58:47 10° NNW
UNK 4.3 21:50:46 10° NNE 21:56:14 88° ESE 22:01:58 10° SSW
USA 245 4.1 21:51:08 11° SSE 21:56:48 90° SE 22:01:37 10° NNW
SeaSat 1 3.0 21:58:17 12° S 22:02:47 52° WSW 22:07:37 10° NW
Cosmos 1634 Rocket 4.1 21:58:28 10° NNW 22:04:38 75° W 22:10:49 10° S
YAOGAN 6 3.1 22:03:34 13° S 22:06:50 59° W 22:10:33 10° NNW
NOAA 11 4.2 22:02:15 15° SSE 22:06:50 82° ENE 22:12:18 10° NNW
SL-08 RB Rocket 3.7 22:03:34 17° SSE 22:07:07 77° ENE 22:11:39 10° N
Cosmos 1953 Rocket 3.5 22:03:58 10° S 22:08:23 87° E 22:12:51 10° N
Cosmos-2242 3.4 22:08:05 10° N 22:12:25 52° ENE 22:15:08 21° SSE
Cosmos 1805 4.2 22:09:13 10° N 22:12:52 34° ENE 22:14:51 21° SE
CZ-4B R/B 3.7 22:08:26 10° NNE 22:13:33 79° WNW 22:18:44 10° SSW
ISS -3.0 22:11:18 10° WSW 22:14:33 67° NNW 22:17:49 10° ENE
Cosmos 1190 Rocket 4.2 22:11:57 10° SSW 22:17:16 80° WNW 22:22:38 10° NNE
Cosmos 489 Rocket 4.5 22:12:17 10° SSW 22:18:38 81° ESE 22:25:02 10° NNE
Cosmos 1570 Rocket 4.5 22:13:47 10° NNW 22:19:02 52° ENE 22:22:33 20° SE
CZ-4C R/B 3.4 22:17:02 20° SSE 22:19:52 90° NNE 22:23:53 10° NNW
H-2A R/B 2.2 22:16:38 20° SE 22:19:59 60° ENE 22:25:01 10° N
SAR-Lupe-2 3.7 22:23:19 27° SSE 22:25:06 63° ENE 22:28:40 10° N
Cosmos 2279 Rocket 4.0 22:19:13 10° N 22:25:30 87° W 22:30:28 17° S
PSLV R/B 4.2 22:24:22 10° WSW 22:27:33 31° S 22:28:07 29° SSE
SL-23 DEB 4.3 22:22:23 10° SW 22:27:56 46° SSE 22:31:28 10° ENE
SPOT 1/Viking Rocket 4.3 22:24:35 12° S 22:29:08 48° W 22:34:07 10° NNW
Atlas Centaur 2 4.1 22:23:23 10° SW 22:29:08 23° S 22:31:50 19° SSE
CZ-4C R/B 3.9 22:30:35 14° ESE 22:30:43 14° ESE 22:33:27 10° ENE
Cosmos 1140 Rocket 3.9 22:27:54 21° SSE 22:30:58 43° ESE 22:35:55 10° NE
COSMOS 2406 3.7 22:27:47 20° SSE 22:31:15 41° ESE 22:36:36 10° NE
Cosmos 1953 2.3 22:29:33 10° N 22:33:33 72° E 22:35:30 29° SSE
CZ-4 R/B 4.2 22:29:19 10° N 22:34:18 71° WNW 22:39:18 10° SSW
Cosmos 676 Rocket 4.0 22:29:01 10° SSW 22:34:21 89° ESE 22:39:43 10° NNE
Cosmos 1932 4.5 22:28:26 10° SSW 22:34:27 58° ESE 22:40:35 10° NE
Landsat 7 3.9 22:32:56 22° S 22:36:04 77° WSW 22:40:50 10° NNW
Lacrosse 5 rocket 4.1 22:33:42 10° NW 22:36:45 20° N 22:39:54 10° NE
Cosmos 1758 Rocket 4.3 22:37:57 10° SSW 22:42:13 52° WNW 22:46:30 10° N
ATLAS 3B R/B 3.1 22:36:40 10° SW 22:44:23 78° NW 22:51:54 10° NE
CARTOSAT-1 3.5 22:42:24 27° S 22:44:43 83° WSW 22:49:04 10° NNW
Spot 4 3.8 22:43:13 27° SSE 22:45:48 78° ENE 22:50:37 10° NNW
Cosmos 1943 Rocket 2.4 22:41:48 10° NNW 22:47:18 64° WSW 22:50:34 25° S
Cosmos 1707 4.3 22:48:09 20° E 22:48:42 21° E 22:51:41 10° NE
Cosmos 1346 Rocket 4.4 22:46:26 10° SW 22:49:57 32° WNW 22:53:32 10° N
DMSP B5D2-2 4.1 22:45:04 10° NNE 22:50:22 68° ESE 22:53:33 24° S
Terra 1.9 22:49:14 27° S 22:51:52 77° WSW 22:56:39 10° NNW
NOSS 3-2 (A) 4.4 22:52:41 24° SE 22:54:08 26° ESE 22:59:25 10° ENE
Cosmos 1943 4.5 22:48:52 10° SW 22:54:13 42° NW 22:59:39 10° NNE
SL-27 R/B 2.3 22:53:31 30° SSW 22:55:04 79° WNW 22:58:26 10° NNE
Cosmos 614 Rocket 4.4 22:53:13 29° SSE 22:55:21 44° ESE 23:00:18 10° NNE
COSMOS 2487 3.5 22:57:20 30° ESE 22:57:20 30° ESE 23:00:33 10° NE
USA 234 3.8 22:53:50 24° SSE 22:57:32 45° SW 23:03:49 10° WNW
Cosmos 1656 Rocket 3.7 22:52:20 10° NNW 22:58:04 80° ENE 23:01:04 29° SSE
Cosmos 1842 3.9 22:55:37 19° SSW 22:58:12 54° WNW 23:02:04 10° N
Lacrosse 5 3.7 22:56:26 10° NW 23:00:53 29° NNE 23:05:19 10° ENE
ALOS 2 4.4 23:05:18 16° E 23:07:15 21° ENE 23:10:32 10° NNE
Cosmos 1842 Rocket 3.6 23:05:47 10° NNW 23:10:11 76° W 23:11:57 35° S
Cosmos 1733 3.6 23:09:42 10° N 23:13:30 51° ENE 23:14:22 42° ESE
Cosmos 1818 4.3 23:09:00 10° NNW 23:14:19 47° NE 23:17:44 21° ESE
CZ-4B R/B 3.5 23:18:11 18° E 23:19:12 20° ENE 23:21:56 10° NNE
IGS 5A 4.4 23:18:28 27° SSW 23:20:11 40° W 23:24:08 10° NNW
Aureole 2 4.2 23:17:24 10° NNW 23:20:24 59° WSW 23:20:26 59° WSW
USA 238 DEB 3.7 23:19:55 10° SW 23:27:02 88° NW 23:34:08 10° NE
USA 238 3.7 23:20:01 10° SW 23:27:08 89° NW 23:34:14 10° NE
Lacrosse 4 Rocket 3.9 23:27:48 10° W 23:31:01 22° NW 23:34:17 10° N
CZ-4C R/B 3.8 23:32:45 35° E 23:32:55 35° ENE 23:35:54 10° N
SL-8 R/B 3.9 23:30:42 10° WNW 23:35:22 49° SSW 23:36:12 44° S
Cosmos 1092 Rocket 4.1 23:31:43 26° SSW 23:35:27 79° W 23:41:46 10° N
H-2A R/B 3.5 23:32:15 10° NE 23:35:29 26° E 23:35:29 26° E
Cosmos 1689 Rocket 3.9 23:35:33 23° ENE 23:35:48 24° ENE 23:38:28 10° NNE
Meteor 2-5 Rocket 3.7 23:36:45 33° S 23:39:29 84° E 23:45:17 10° NNE
Cosmos 1340 2.8 23:44:17 51° SW 23:45:05 69° WNW 23:48:54 10° N
Cosmos 1741 Rocket 4.4 23:41:49 21° SW 23:45:22 61° WNW 23:50:40 10° NNE
Cosmos 2369 4.1 23:40:25 10° NNW 23:46:01 57° ENE 23:48:43 30° SE
Cosmos 1470 3.3 23:42:52 10° NNW 23:46:37 47° W 23:47:24 40° SW
Cosmos 1766 Rocket 4.0 23:46:06 41° SE 23:46:53 46° E 23:51:11 10° NNE
Cosmos 1076 Rocket 3.8 23:46:19 45° ESE 23:46:55 49° E 23:51:02 10° NNE
Cosmos 2221 2.4 23:42:53 10° N 23:47:14 89° W 23:48:11 54° S
Meteor 2-1 Rocket 4.3 23:43:53 10° N 23:49:50 81° ENE 23:52:10 39° SSE
NOSS 3-3 (A) 4.4 23:43:15 10° NW 23:50:39 85° SW 23:54:55 30° SSE
NOSS 3-3 (C) 4.4 23:43:21 10° NW 23:50:45 86° SW 23:55:03 30° SSE
ISS -1.5 23:48:20 10° WNW 23:51:21 33° N 23:54:21 10° ENE
CENTAUR R/B 4.4 23:50:52 13° ESE 23:51:27 13° ESE 23:54:12 10° ENE
S3M 4.1 23:45:55 10° N 23:52:09 65° E 23:54:46 35° SSE
Cosmos 1867 4.4 23:52:05 32° SE 23:52:34 32° ESE 23:57:23 10° NE
Cosmos 841 Rocket 4.5 23:48:13 10° N 23:53:11 40° ENE 23:55:43 25° ESE
